Main page
METAR-TAF:

METAR-TAF

Airports :

Kit Carson County Airport

Burlington, Colorado, United States

latitude: 39-14-32N, longitude: 102-16-58W, elevation: 4215 ft

Current weather observation

The report was made 45 minutes ago, at 22:53 UTC
Wind 10 mph from the South/Southwest
Temperature 97°F
Humidity 16%
Pressure 29.95 in. Hg
Visibility: 10 miles
Few clouds at a height of 12000 ft

METAR: KITR 012253Z AUTO 20009KT 10SM FEW120 36/06 A2995 RMK AO2 SLP078 T03560056

Time: 17:38 (23:38 UTC)


TAF: missing

Weather observations and forecasts of more than 4000 airports (METAR and TAF reports).

The available stations are represented by yellow and red dots on the map.

Hover mouse over dot to see the name of the station.

Then click to see weather observations and forecasts.

To change the map : click on the green buttons with a black cross to zoom in, on the green button with a dash to zoom out, or on the green arrows for adjacent maps.


METAR-TAF: